This is the latest recevied weather packets stored in our database for station/object K1RFS. If no packets are shown the sender has not sent any weather packets the latest 10 day(s).
| Time | Temp. | Humidity | Pressure | Rain* | Wind** | Luminosity | Snow |
|---|---|---|---|---|---|---|---|
| 1777627821 | 5.56° C | 50% | 1003.4 hPa | 0 mm | - | 0 W/m² | - |
| 1777627520 | 5.56° C | 50% | 1003.4 hPa | 0 mm | - | 0 W/m² | - |
| 1777627215 | 6.11° C | 48% | 1003.4 hPa | 0 mm | - | 0 W/m² | - |
| 1777626912 | 6.11° C | 48% | 1003.8 hPa | 0 mm | - | 0 W/m² | - |
| 1777626608 | 6.11° C | 48% | 1003.6 hPa | 0 mm | - | 0 W/m² | - |
| 1777626309 | 6.11° C | 48% | 1003.7 hPa | 0 mm | - | 0 W/m² | - |
| 1777626008 | 6.11° C | 48% | 1003.6 hPa | 0 mm | - | 0 W/m² | - |
| 1777625702 | 6.11° C | 48% | 1003.7 hPa | 0 mm | - | 0 W/m² | - |
| 1777625398 | 6.11° C | 48% | 1003.4 hPa | 0 mm | - | 0 W/m² | - |
| 1777625095 | 6.67° C | 47% | 1003.6 hPa | 0 mm | - | 0 W/m² | - |
| 1777624791 | 7.22° C | 45% | 1003.7 hPa | 0 mm | - | 0 W/m² | - |
| 1777624486 | 7.78° C | 44% | 1003.6 hPa | 0 mm | - | 0 W/m² | - |
| 1777624185 | 8.33° C | 42% | 1003.6 hPa | 0 mm | - | 0 W/m² | - |
| 1777623880 | 8.33° C | 41% | 1003.6 hPa | 0 mm | - | 0 W/m² | - |
| 1777623577 | 8.33° C | 41% | 1003.4 hPa | 0 mm | - | 0 W/m² | - |
| 1777623276 | 8.33° C | 42% | 1003.3 hPa | 0 mm | - | 0 W/m² | - |
| 1777622971 | 8.33° C | 43% | 1003.6 hPa | 0 mm | - | 0 W/m² | - |
| 1777622668 | 7.78° C | 43% | 1003.4 hPa | 0 mm | - | 0 W/m² | - |
| 1777622365 | 8.33° C | 42% | 1003.6 hPa | 0 mm | - | 0 W/m² | - |
| 1777622062 | 8.33° C | 42% | 1003.6 hPa | 0 mm | - | 0 W/m² | - |
| 1777621757 | 8.33° C | 42% | 1003.6 hPa | 0 mm | - | 0 W/m² | - |
| 1777621454 | 8.33° C | 42% | 1003.6 hPa | 0 mm | - | 0 W/m² | - |
| 1777621149 | 8.33° C | 41% | 1003.6 hPa | 0 mm | - | 0 W/m² | - |
| 1777620846 | 8.33° C | 41% | 1003.7 hPa | 0 mm | - | 0 W/m² | - |
| 1777620542 | 8.33° C | 41% | 1003.4 hPa | 0 mm | - | 0 W/m² | - |
* Rain latest hour (hover to see other rain measurements)
** Current wind speed in m/s (hover to see current wind gust speed)